When you browse on this site, cookies collect data to enhance your experience and personalize the content and advertising you see.
Visit our Privacy Policy to learn more. By continuing to use the site, you agree to this use of cookies and data.
  • In Hungary
  • List of Countries
  • For 7 days
  • Water Temperature
  • Satellite Maps
  • Weather Map
  • News
  • Weather Widgets
  • user-avatar
    Login

    Hourly Weather Chitré

    Today, 21 November, Wednesday

    Time Temperature Precipitation Wind Pressure Humidity
    00:00 +27°C° 0.1 mm 1 mps 755 mmHg 90%
    01:00 +26°C° 0.1 mm 1 mps 755 mmHg 91%
    02:00 +26°C° 0.1 mm 2 mps 755 mmHg 91%
    03:00 +26°C° 0.1 mm 2 mps 755 mmHg 91%
    04:00 +26°C° 0.1 mm 2 mps 755 mmHg 91%
    05:00 +26°C° 0.3 mm 2 mps 755 mmHg 91%
    06:00 +26°C° 0.3 mm 2 mps 755 mmHg 91%
    07:00 +26°C° 0.3 mm 2 mps 755 mmHg 91%
    08:00 +27°C° 0.4 mm 2 mps 756 mmHg 89%
    09:00 +28°C° 0.4 mm 2 mps 756 mmHg 87%
    10:00 +28°C° 0.4 mm 2 mps 757 mmHg 85%
    11:00 +29°C° 0.3 mm 2 mps 756 mmHg 82%
    12:00 +30°C° 0.3 mm 1 mps 756 mmHg 79%
    13:00 +31°C° 0.3 mm 1 mps 755 mmHg 76%
    14:00 +30°C° 2.1 mm 1 mps 755 mmHg 79%
    15:00 +30°C° 2.1 mm 1 mps 755 mmHg 82%
    16:00 +29°C° 2.1 mm 1 mps 754 mmHg 85%
    17:00 +28°C° 1.9 mm 1 mps 755 mmHg 87%
    18:00 +28°C° 1.9 mm 1 mps 755 mmHg 89%
    19:00 +27°C° 1.9 mm 1 mps 755 mmHg 90%
    20:00 +27°C° 0.5 mm 1 mps 756 mmHg 91%
    21:00 +27°C° 0.5 mm 2 mps 756 mmHg 91%
    22:00 +27°C° 0.5 mm 2 mps 757 mmHg 92%
    23:00 +26°C° 0.2 mm 2 mps 756 mmHg 92%

    Tomorrow, 22 November, Thursday

    Time Temperature Precipitation Wind Pressure Humidity
    00:00 +26°C° 0.2 mm 2 mps 756 mmHg 93%
    01:00 +26°C° 0.2 mm 2 mps 756 mmHg 93%
    02:00 +26°C° 0.4 mm 2 mps 756 mmHg 93%
    03:00 +26°C° 0.4 mm 2 mps 755 mmHg 93%
    04:00 +26°C° 0.4 mm 2 mps 755 mmHg 93%
    05:00 +26°C° 0.4 mm 1 mps 755 mmHg 93%
    06:00 +26°C° 0.4 mm 1 mps 756 mmHg 92%
    07:00 +26°C° 0.4 mm 1 mps 756 mmHg 92%
    08:00 +27°C° 0.3 mm 1 mps 756 mmHg 89%
    09:00 +28°C° 0.3 mm 1 mps 757 mmHg 87%
    10:00 +28°C° 0.3 mm 1 mps 758 mmHg 84%
    11:00 +29°C° 0.6 mm 1 mps 757 mmHg 83%
    12:00 +29°C° 0.6 mm 1 mps 756 mmHg 82%
    13:00 +30°C° 0.6 mm 1 mps 756 mmHg 80%
    14:00 +29°C° 0.6 mm 1 mps 755 mmHg 82%
    15:00 +29°C° 0.6 mm 2 mps 755 mmHg 83%
    16:00 +29°C° 0.6 mm 2 mps 754 mmHg 84%
    17:00 +28°C° 0.3 mm 1 mps 755 mmHg 86%
    18:00 +27°C° 0.3 mm 1 mps 755 mmHg 88%
    19:00 +27°C° 0.3 mm 1 mps 755 mmHg 90%
    20:00 +27°C° 0.3 mm 1 mps 756 mmHg 90%
    21:00 +27°C° 0.3 mm 1 mps 757 mmHg 90%
    22:00 +26°C° 0.3 mm 1 mps 757 mmHg 90%
    23:00 +26°C° 0.6 mm 1 mps 757 mmHg 90%

    Day after tomorrow, 23 November, Friday

    Time Temperature Precipitation Wind Pressure Humidity
    00:00 +26°C° 0.6 mm 1 mps 756 mmHg 89%
    01:00 +26°C° 0.6 mm 1 mps 756 mmHg 89%
    02:00 +26°C° 0.3 mm 1 mps 755 mmHg 89%
    03:00 +26°C° 0.3 mm 1 mps 755 mmHg 89%
    04:00 +26°C° 0.3 mm 1 mps 754 mmHg 89%
    05:00 +26°C° 0.1 mm 1 mps 755 mmHg 89%
    06:00 +26°C° 0.1 mm 1 mps 755 mmHg 89%
    07:00 +24°C° 0.1 mm 0 mps 755 mmHg 89%
    08:00 +28°C° 0 mm 1 mps 756 mmHg 84%
    09:00 +29°C° 0 mm 1 mps 756 mmHg 79%
    10:00 +30°C° 0 mm 1 mps 757 mmHg 74%
    11:00 +30°C° 0.3 mm 2 mps 756 mmHg 72%
    12:00 +31°C° 0.3 mm 2 mps 755 mmHg 71%
    13:00 +32°C° 0.3 mm 2 mps 755 mmHg 69%
    14:00 +31°C° 0.7 mm 2 mps 754 mmHg 71%
    15:00 +31°C° 0.7 mm 2 mps 754 mmHg 73%
    16:00 +30°C° 0.7 mm 2 mps 753 mmHg 75%
    17:00 +29°C° 0.6 mm 2 mps 754 mmHg 79%
    18:00 +28°C° 0.6 mm 2 mps 754 mmHg 83%
    19:00 +27°C° 0.6 mm 2 mps 755 mmHg 88%
    20:00 +27°C° 0.5 mm 2 mps 755 mmHg 88%
    21:00 +27°C° 0.5 mm 1 mps 756 mmHg 88%
    22:00 +26°C° 0.5 mm 1 mps 756 mmHg 88%
    23:00 +26°C° 0.1 mm 1 mps 756 mmHg 88%

    24 November, Saturday

    Time Temperature Precipitation Wind Pressure Humidity
    00:00 +26°C° 0.1 mm 1 mps 756 mmHg 89%
    01:00 +26°C° 0.1 mm 1 mps 755 mmHg 89%
    02:00 +26°C° 0 mm 1 mps 755 mmHg 89%
    03:00 +26°C° 0 mm 1 mps 754 mmHg 89%
    04:00 +25°C° 0 mm 1 mps 754 mmHg 90%
    05:00 +26°C° 0 mm 1 mps 755 mmHg 89%
    06:00 +26°C° 0 mm 1 mps 755 mmHg 89%
    07:00 +26°C° 0 mm 1 mps 755 mmHg 89%
    08:00 +27°C° 0.1 mm 1 mps 756 mmHg 83%
    09:00 +29°C° 0.1 mm 1 mps 756 mmHg 77%
    10:00 +30°C° 0.1 mm 1 mps 756 mmHg 71%
    11:00 +31°C° 0.3 mm 1 mps 756 mmHg 68%
    12:00 +32°C° 0.3 mm 1 mps 755 mmHg 66%
    13:00 +32°C° 0.3 mm 1 mps 754 mmHg 63%
    14:00 +32°C° 0.8 mm 2 mps 754 mmHg 66%
    15:00 +31°C° 0.8 mm 2 mps 753 mmHg 69%
    16:00 +31°C° 0.8 mm 2 mps 753 mmHg 71%
    17:00 +30°C° 0.9 mm 2 mps 753 mmHg 76%
    18:00 +29°C° 0.9 mm 2 mps 754 mmHg 81%
    19:00 +27°C° 0.9 mm 2 mps 755 mmHg 86%
    20:00 +27°C° 0.3 mm 1 mps 755 mmHg 86%
    21:00 +27°C° 0.3 mm 1 mps 755 mmHg 87%
    22:00 +27°C° 0.3 mm 1 mps 756 mmHg 88%
    23:00 +26°C° 0 mm 1 mps 755 mmHg 88%

    25 November, Sunday

    Time Temperature Precipitation Wind Pressure Humidity
    00:00 +26°C° 0 mm 1 mps 755 mmHg 88%
    01:00 +26°C° 0 mm 1 mps 755 mmHg 88%
    02:00 +26°C° 0 mm 1 mps 755 mmHg 89%
    03:00 +26°C° 0 mm 1 mps 754 mmHg 89%
    04:00 +26°C° 0 mm 1 mps 754 mmHg 89%
    05:00 +26°C° 0.1 mm 1 mps 755 mmHg 89%
    06:00 +26°C° 0.1 mm 1 mps 755 mmHg 89%
    07:00 +26°C° 0.1 mm 1 mps 756 mmHg 88%
    08:00 +28°C° 0.2 mm 1 mps 756 mmHg 83%
    09:00 +29°C° 0.2 mm 1 mps 756 mmHg 77%
    10:00 +30°C° 0.2 mm 1 mps 757 mmHg 72%
    11:00 +31°C° 0.4 mm 1 mps 756 mmHg 70%
    12:00 +31°C° 0.4 mm 2 mps 755 mmHg 69%
    13:00 +32°C° 0.4 mm 2 mps 755 mmHg 68%
    14:00 +31°C° 0.7 mm 2 mps 754 mmHg 70%
    15:00 +31°C° 0.7 mm 2 mps 754 mmHg 72%
    16:00 +31°C° 0.7 mm 2 mps 753 mmHg 74%
    17:00 +30°C° 0.3 mm 2 mps 754 mmHg 78%
    18:00 +29°C° 0.3 mm 2 mps 754 mmHg 82%
    19:00 +27°C° 0.3 mm 1 mps 755 mmHg 87%
    20:00 +27°C° 0.1 mm 1 mps 755 mmHg 87%
    21:00 +27°C° 0.1 mm 1 mps 756 mmHg 88%
    22:00 +27°C° 0.1 mm 1 mps 756 mmHg 89%
    23:00 +26°C° 0.2 mm 1 mps 756 mmHg 89%

    26 November, Monday

    Time Temperature Precipitation Wind Pressure Humidity
    00:00 +26°C° 0.2 mm 1 mps 755 mmHg 89%
    01:00 +26°C° 0.2 mm 1 mps 755 mmHg 90%
    02:00 +26°C° 0 mm 1 mps 755 mmHg 90%
    03:00 +26°C° 0 mm 2 mps 755 mmHg 90%
    04:00 +26°C° 0 mm 2 mps 755 mmHg 90%
    05:00 +26°C° 0 mm 2 mps 755 mmHg 90%
    06:00 +26°C° 0 mm 2 mps 756 mmHg 90%
    07:00 +26°C° 0 mm 2 mps 756 mmHg 89%
    08:00 +28°C° 0 mm 2 mps 756 mmHg 83%
    09:00 +29°C° 0 mm 2 mps 757 mmHg 78%
    10:00 +30°C° 0 mm 3 mps 757 mmHg 72%
    11:00 +31°C° 0.1 mm 3 mps 756 mmHg 69%
    12:00 +33°C° 0.1 mm 3 mps 756 mmHg 67%
    13:00 +34°C° 0.1 mm 3 mps 755 mmHg 65%
    14:00 +33°C° 0.7 mm 3 mps 755 mmHg 67%
    15:00 +33°C° 0.7 mm 3 mps 754 mmHg 69%
    16:00 +31°C° 0.7 mm 3 mps 754 mmHg 71%
    17:00 +30°C° 0.5 mm 3 mps 754 mmHg 76%
    18:00 +29°C° 0.5 mm 3 mps 754 mmHg 80%
    19:00 +28°C° 0.5 mm 3 mps 755 mmHg 85%
    20:00 +27°C° 0 mm 2 mps 755 mmHg 85%
    21:00 +27°C° 0 mm 2 mps 756 mmHg 86%
    22:00 +27°C° 0 mm 2 mps 756 mmHg 86%
    23:00 +26°C° 0.1 mm 2 mps 756 mmHg 87%
    Show more